Dewpoint
66 66 67 68 68 69 69 69 69 69 70 69 69 68 68 68 67 66 66 65 64 65 67 67 66 65 63 64 67 67 68 68 68 68 67 69 68 68 68 68 68 69 69
66 67 66 67 68 68 68 68 69 69 69 69 68 68 67 66 66 66 66 65 63 63 64 66 65 63 63 62 65 66 66 67 68 68 67 68 67 67 67 68 68 68 69
65 66 66 67 67 67 67 67 68 68 68 68 67 66 67 66 66 67 67 65 65 64 63 63 64 64 63 63 63 62 63 64 64 63 64 67 68 66 66 66 67 68 68
54 58 65 66 67 67 67 67 67 68 68 68 68 67 67 68 67 68 67 66 65 65 65 64 63 64 64 64 64 63 62 64 63 62 63 66 67 67 67 67 67 67 67
47 51 60 63 65 67 67 67 67 68 68 68 68 68 67 67 67 67 67 67 66 66 66 65 64 64 65 65 63 61 62 62 62 61 64 65 67 67 67 66 66 66 66
45 46 54 58 58 60 62 66 67 67 68 68 68 68 67 67 67 66 67 67 67 67 67 66 66 66 65 65 64 64 64 63 61 60 64 65 65 67 66 66 65 66 65
43 44 46 53 56 57 58 60 60 62 64 66 66 67 67 67 67 66 66 66 67 67 67 67 67 66 66 66 65 65 64 62 60 59 62 64 65 65 65 64 66 65 65
40 41 43 46 52 55 57 59 59 58 57 58 59 58 58 62 66 66 66 65 65 65 66 66 66 66 67 66 67 66 65 63 60 59 59 61 65 65 66 65 66 66 66
36 37 39 42 46 51 55 57 57 57 56 56 57 55 55 55 57 64 65 64 64 64 64 65 66 66 66 65 66 67 66 65 62 60 59 60 64 65 65 67 67 66 66
32 33 34 38 42 47 52 55 56 57 56 56 56 55 54 53 54 58 63 64 64 65 65 64 65 65 65 66 65 65 66 65 62 60 59 60 63 64 64 66 67 66 65
30 30 31 34 37 44 51 51 52 53 53 50 52 54 54 54 54 54 55 56 59 62 64 64 64 64 64 65 64 65 64 64 61 60 59 61 63 61 58 62 66 65 66
28 28 29 30 32 38 47 48 49 49 49 44 42 47 48 50 51 54 54 55 54 55 58 61 62 64 64 64 64 64 64 64 61 59 58 57 64 65 60 62 67 67 66
27 28 28 29 29 31 37 42 43 45 45 42 39 39 41 44 45 48 52 54 53 53 53 54 55 62 63 63 63 63 63 63 62 59 55 55 63 64 65 64 63 67 68
25 26 26 27 27 28 31 31 35 39 37 36 35 34 32 35 37 41 47 51 51 51 53 53 53 55 59 62 63 63 63 63 61 58 54 58 64 65 64 64 65 66 67
24 24 24 25 25 26 27 28 29 31 29 27 30 31 27 28 28 35 40 44 43 46 51 53 53 53 56 59 59 61 62 62 63 62 55 55 63 63 64 63 64 66 67
22 23 23 22 24 24 24 24 26 27 29 27 22 28 27 25 26 29 33 31 31 38 46 50 51 52 53 55 56 57 59 60 61 63 60 54 60 62 63 63 64 66 66
21 23 22 21 23 22 24 24 23 26 26 29 23 24 26 24 24 25 31 29 29 32 37 43 46 50 51 52 52 54 56 57 59 60 62 62 57 58 60 62 64 66 66
20 21 22 22 22 22 22 24 22 23 24 26 24 23 24 22 22 25 26 29 29 29 32 33 37 43 48 50 51 52 53 54 57 58 59 61 62 61 59 59 63 66 66
19 20 20 21 21 21 21 22 22 20 24 23 22 22 21 21 21 22 24 27 30 28 29 31 30 37 37 46 49 50 50 51 53 56 58 59 60 61 62 61 60 62 65
19 19 20 19 21 20 21 19 20 18 23 22 23 20 21 21 20 20 22 26 26 25 26 28 29 31 33 42 44 48 50 51 52 51 53 55 57 59 61 61 61 60 61
18 18 18 18 19 19 18 16 15 16 21 19 22 21 21 20 20 20 21 23 22 21 24 25 27 28 30 36 37 43 45 48 48 48 50 51 53 56 59 60 61 61 62
16 17 17 18 18 18 18 20 20 18 19 18 20 19 20 19 20 18 21 21 21 21 22 24 25 25 29 27 28 37 43 44 47 49 50 51 52 54 56 59 60 61 61
15 15 16 18 17 17 18 19 17 17 17 16 17 17 18 18 19 21 21 21 21 21 21 20 21 23 22 25 32 37 40 42 42 46 48 47 48 51 54 56 58 60 61
13 14 14 16 16 15 17 17 15 16 15 15 17 18 17 17 18 20 20 21 21 20 20 20 17 20 25 23 22 25 30 32 38 39 43 45 47 47 49 51 55 58 60
12 12 13 15 15 16 16 16 16 16 16 17 17 17 17 18 18 18 19 19 19 19 20 20 20 20 20 20 21 22 23 26 28 28 28 39 43 46 48 49 51 53 55
10 11 12 13 13 15 15 15 16 16 16 16 16 17 17 17 17 17 18 18 19 19 19 19 20 20 20 20 21 22 22 22 23 25 29 30 37 41 45 47 49 50 51
Wind_Speed
8 9 12 14 15 15 15 15 15 15 15 15 14 14 15 14 12 11 11 11 11 11 12 11 12 10 10 11 11 13 15 14 13 12 13 12 11 12 11 12 13 15 16
12 14 15 14 14 14 14 14 13 13 12 13 13 13 12 11 10 10 10 11 11 11 10 9 10 9 9 10 10 11 12 12 12 11 9 9 8 9 10 10 12 15 15
19 16 15 16 15 15 14 13 12 12 12 12 12 11 11 10 9 8 9 10 9 9 9 9 9 8 9 9 9 9 10 10 9 7 5 5 8 12 13 11 11 13 13
23 23 18 19 19 18 16 15 14 13 12 11 11 10 10 9 8 8 7 8 8 8 8 7 7 7 7 7 8 8 9 9 9 8 2 3 6 10 10 10 11 11 11
22 21 25 27 23 20 19 18 17 15 14 12 11 10 9 9 8 8 7 6 6 6 6 5 5 5 5 5 5 7 8 9 10 7 6 4 4 9 10 9 9 9 9
21 21 24 27 26 26 21 18 16 15 14 13 11 10 9 8 7 7 5 4 3 4 4 3 3 3 3 2 3 4 7 10 9 10 3 5 7 8 10 10 10 9 8
22 21 20 26 26 25 24 23 17 15 13 12 12 11 10 9 7 6 5 4 2 2 2 1 1 1 1 2 4 5 6 7 8 9 3 2 5 9 10 10 8 9 8
21 20 21 24 25 24 24 26 22 19 17 16 16 17 16 13 10 8 7 5 4 4 4 4 4 3 4 4 4 5 7 6 5 6 4 4 2 8 12 10 8 7 8
22 22 22 21 22 23 23 27 26 27 26 24 19 21 22 19 13 8 7 7 6 6 6 6 7 7 6 6 7 6 8 7 6 5 6 5 3 6 10 9 6 6 8
22 22 22 21 21 19 19 26 26 26 26 24 24 23 23 26 25 19 16 11 9 10 10 9 9 9 9 8 8 9 10 10 7 6 6 7 9 6 6 8 5 6 8
22 22 21 21 20 19 18 20 22 24 27 27 24 24 19 17 19 19 22 22 15 15 15 12 10 11 10 10 10 10 11 11 9 7 7 9 12 11 9 5 7 7 7
22 20 20 20 20 19 16 18 17 18 17 20 22 21 19 18 18 18 19 24 23 23 19 17 15 13 11 9 9 10 10 12 12 10 10 11 16 13 10 8 9 10 11
15 18 20 19 18 19 18 16 16 15 16 17 22 22 19 17 19 18 17 17 17 20 16 17 18 11 8 9 10 10 11 12 12 12 13 13 15 14 11 10 10 15 15
17 17 19 19 19 19 15 17 17 16 17 17 19 23 20 18 19 18 16 18 17 18 18 16 14 14 15 9 9 11 12 12 13 11 13 15 14 13 11 12 15 16 20
18 18 19 20 20 18 18 16 17 17 17 17 18 20 21 19 18 17 16 16 17 18 18 18 17 16 15 13 12 9 9 10 12 13 12 15 17 15 14 14 15 14 19
17 18 17 21 20 19 19 18 17 16 16 17 19 19 18 17 17 17 16 17 18 18 18 16 16 16 15 14 15 14 12 11 10 9 9 12 16 16 16 16 16 14 17
15 14 18 18 18 19 18 17 16 17 16 16 17 18 19 19 19 17 15 16 17 17 19 18 18 16 16 16 15 15 15 15 13 12 9 9 12 17 17 17 17 17 18
12 14 12 14 16 17 17 15 15 15 14 14 15 15 19 19 19 17 16 16 18 16 16 17 18 18 17 16 15 15 15 15 15 14 11 11 10 11 15 19 18 19 20
12 13 15 15 16 15 14 13 12 14 13 14 14 15 18 17 18 17 15 16 17 16 15 16 16 14 19 18 17 17 16 15 16 13 14 12 12 12 12 15 21 22 22
13 13 13 13 15 14 12 11 9 12 11 12 12 15 16 16 18 18 14 15 16 16 16 16 17 15 15 15 20 19 15 16 15 16 17 15 14 14 14 15 15 16 21
12 15 15 16 16 16 16 18 15 19 12 14 12 15 14 15 16 17 15 15 15 15 16 16 14 18 16 14 13 15 18 18 19 17 17 16 17 16 14 15 14 14 14
10 12 14 13 14 14 13 11 5 13 7 12 12 12 12 16 15 16 15 16 15 16 16 14 14 15 11 14 9 14 9 12 10 13 11 12 13 14 15 16 16 16 14
11 11 13 13 14 12 13 11 11 8 9 8 15 14 14 15 16 14 14 14 14 13 14 16 14 11 14 15 9 6 7 6 15 8 9 13 14 9 12 14 15 16 16
7 9 10 10 12 13 12 12 14 14 15 14 16 16 18 17 17 15 16 15 15 14 14 14 15 15 11 15 14 7 12 12 7 12 12 17 19 17 14 13 12 14 15
7 8 10 10 13 13 15 14 14 15 14 14 15 17 17 16 16 17 17 18 16 15 16 16 17 15 13 13 15 14 13 13 14 14 21 18 21 15 15 14 14 13 13
8 11 12 13 14 14 13 13 14 16 17 16 17 17 16 16 17 17 17 17 17 17 17 18 17 17 17 16 15 15 16 12 12 12 13 22 20 18 17 18 15 14 16
Wind_Direction
31 52 66 70 71 69 63 63 61 62 64 68 73 80 81 74 70 71 73 69 65 60 60 71 69 61 57 60 53 61 71 76 72 68 67 63 83 98 110 112 112 106 105
69 54 53 63 68 67 66 66 66 65 67 70 69 69 75 80 83 84 84 78 72 69 66 60 60 62 60 56 51 52 64 64 60 62 58 53 82 102 103 100 103 104 105
53 45 45 52 57 57 57 59 61 63 62 61 63 64 67 76 80 85 94 94 90 82 76 73 72 69 62 51 48 45 50 61 56 19 4 74 76 101 98 100 104 103 106
46 31 30 48 51 53 53 52 54 56 55 56 59 59 51 60 61 54 78 83 86 84 83 86 86 84 75 60 38 38 48 41 24 23 121 132 115 110 106 109 110 110 110
35 30 32 34 39 43 46 45 45 44 45 46 49 45 42 43 49 50 49 59 71 78 73 69 75 79 86 72 46 31 31 32 21 30 91 166 145 136 126 124 121 120 124
27 26 29 31 31 27 32 34 38 40 40 38 34 32 30 28 29 34 43 62 67 66 77 70 56 58 44 45 43 23 20 16 23 23 47 137 186 169 143 141 137 147 150
26 20 22 25 27 27 28 20 23 28 28 26 24 19 14 10 13 14 21 32 24 6 2 33 2 326 323 324 334 337 350 14 11 3 338 67 171 188 159 154 157 159 167
29 18 18 17 19 21 23 25 23 15 10 13 17 14 2 351 352 355 356 350 342 331 319 309 293 275 290 292 289 298 312 340 348 349 319 314 183 190 164 164 165 180 187
26 22 15 11 10 12 20 24 29 32 35 29 28 23 21 17 351 342 346 331 325 316 306 295 290 283 262 275 288 281 282 296 310 317 310 250 232 199 181 164 178 183 188
27 23 14 10 9 4 17 23 27 32 34 32 30 22 21 23 20 18 349 328 324 327 321 306 285 286 285 275 271 279 284 287 286 292 304 238 198 195 194 171 178 190 190
24 20 12 9 10 7 24 20 24 26 30 27 21 19 20 19 12 12 10 13 352 336 323 305 301 287 278 275 281 280 278 279 280 268 263 253 237 203 195 186 196 212 211
21 15 13 9 10 11 19 19 22 26 30 30 24 19 16 14 11 9 5 6 8 8 3 353 321 294 279 274 278 280 274 267 274 272 259 270 237 219 204 205 203 216 222
21 21 13 11 11 18 22 21 20 29 29 25 24 21 17 15 9 8 4 3 360 359 359 356 1 336 287 272 276 278 280 272 266 273 266 265 230 230 214 220 244 226 221
31 22 16 15 20 21 25 27 25 28 27 27 23 23 21 16 9 5 4 0 360 355 351 349 348 358 356 330 305 295 281 271 268 267 264 266 226 224 229 232 230 229 222
37 24 21 20 22 22 30 28 28 29 30 27 28 23 23 16 10 4 2 3 359 351 351 348 350 349 345 344 337 330 319 308 292 265 261 252 235 224 226 236 242 248 208
34 25 20 25 20 23 27 26 25 22 20 27 25 19 20 18 10 6 3 3 359 351 345 344 342 344 343 349 342 330 311 304 301 302 274 250 244 241 234 234 236 232 216
37 29 27 27 21 26 23 22 22 17 17 22 18 14 14 14 7 3 1 1 356 350 347 348 347 344 342 342 338 331 323 308 299 289 279 281 256 247 249 250 241 235 223
49 41 33 29 26 24 21 17 19 16 18 17 14 10 9 10 6 359 356 355 350 352 354 352 349 340 338 332 325 318 319 319 307 289 276 264 261 264 252 246 246 240 232
52 41 35 28 26 19 14 12 19 14 19 9 11 9 4 5 0 358 350 345 347 349 352 351 345 343 332 328 324 315 305 302 303 295 281 270 262 256 258 263 250 242 237
46 41 37 31 26 17 12 6 14 14 7 4 10 5 360 357 354 351 348 346 348 345 344 346 340 339 329 324 321 302 295 293 291 286 281 278 264 253 249 250 255 254 249
42 36 30 27 20 22 17 8 3 359 349 353 0 349 352 351 349 346 345 342 343 341 334 335 334 337 333 347 328 332 308 285 276 269 262 258 261 257 244 241 246 245 250
45 34 29 27 21 22 15 5 352 333 333 325 345 340 341 339 338 338 334 334 334 333 331 335 338 332 325 357 321 301 302 315 283 286 282 270 268 267 255 241 234 235 240
42 29 24 24 16 14 6 357 352 338 335 338 340 335 334 330 325 321 322 320 318 326 320 322 324 331 318 318 322 312 310 291 346 297 296 305 290 299 275 258 240 236 236
41 30 24 16 9 3 358 360 358 349 336 324 321 319 322 321 318 317 315 315 314 314 308 308 313 312 311 309 316 277 313 308 311 310 289 306 303 298 284 277 266 251 240
42 22 9 5 1 357 354 352 342 331 318 312 311 312 312 310 310 309 309 308 304 303 299 299 300 298 295 290 288 293 292 282 278 266 283 284 284 296 301 286 281 275 261
21 13 3 359 349 345 337 324 316 309 306 308 306 306 306 307 306 302 301 299 296 295 294 294 290 287 285 282 276 278 280 276 284 284 294 297 295 297 307 305 279 267 268